Date String (YYYY-MM-DD hh:mm:ss) UTC,Instrument flags,Ambient pressure (hPa),Sample flow (lpm),Bypass flow (lpm),Sample temperature (°C),Ambient temperature (°C),ASC tube jacket temperature (°C),LED temperature (°C),Box temperature (°C),Sample RH (%),Span deviation,Mass concentration (μg/m³),Mass concentration (μg/m³),Mass concentration (μg/m³)
DateTimeUTC,F1_M11,P_M11,Q1_M11,Q2_M11,T1_M11,T2_M11,T3_M11,T4_M11,T5_M11,U1_M11,ZSPAN_M11,X0_M11,X2_M11,X1_M11
2022-11-21 14:00:00,,0829.9,5.00,0.00,22.0,20.4,00.0,31.0,23.7,07.1,0000.0,0002.51,0001.81,0001.55
2022-11-21 14:01:00,,0829.8,4.99,0.00,22.0,20.3,00.0,31.0,23.7,07.1,0000.0,0002.43,0001.79,0001.56
2022-11-21 14:02:00,,0829.6,5.02,0.00,21.9,20.5,00.0,30.9,23.7,07.1,0000.0,0002.58,0001.79,0001.54
2022-11-21 14:03:00,,0829.8,4.98,0.00,22.0,21.5,00.0,30.9,23.9,07.1,0000.0,0002.59,0001.73,0001.50
2022-11-21 14:04:00,,0829.7,5.00,0.00,22.1,22.2,00.0,30.9,24.1,07.0,0000.0,0002.52,0001.67,0001.46
2022-11-21 14:05:00,,0829.7,5.00,0.00,22.2,22.0,00.0,30.9,24.2,06.9,0000.0,0002.42,0001.64,0001.43
2022-11-21 14:06:00,,0829.6,5.01,0.00,22.2,21.6,00.0,31.0,24.1,06.8,0000.0,0002.22,0001.59,0001.41
2022-11-21 14:07:00,,0829.7,4.99,0.00,22.2,21.4,00.0,31.0,24.0,06.7,0000.0,0002.13,0001.53,0001.37
2022-11-21 14:08:00,,0829.7,5.00,0.00,22.1,21.2,00.0,31.0,24.0,06.7,0000.0,0002.10,0001.51,0001.35
2022-11-21 14:09:00,,0829.7,5.01,0.00,22.1,21.0,00.0,31.0,24.0,06.8,0000.0,0002.01,0001.46,0001.32
2022-11-21 14:10:00,,0829.7,4.98,0.00,22.1,20.8,00.0,31.0,23.9,06.7,0000.0,0001.92,0001.37,0001.26
2022-11-21 14:11:00,,0829.7,4.99,0.00,22.1,20.8,00.0,31.0,23.9,06.8,0000.0,0001.83,0001.30,0001.20
2022-11-21 14:12:00,,0829.7,5.00,0.00,22.1,20.7,00.0,31.0,23.9,06.9,0000.0,0001.80,0001.25,0001.15
2022-11-21 14:13:00,,0829.7,5.00,0.00,22.1,20.6,00.0,31.0,23.8,06.9,0000.0,0001.77,0001.23,0001.12
2022-11-21 14:14:00,,0829.7,5.00,0.00,22.0,20.6,00.0,31.0,23.8,06.8,0000.0,0002.14,0001.20,0001.09
2022-11-21 14:15:00,,0829.7,5.00,0.00,22.0,20.5,00.0,31.0,23.7,06.8,0000.0,0003.34,0001.19,0001.05
2022-11-21 14:16:00,,0829.7,5.01,0.00,22.0,20.5,00.0,31.0,23.7,06.9,0000.0,0003.36,0001.17,0001.02
2022-11-21 14:17:00,,0829.8,4.99,0.00,22.0,20.5,00.0,31.0,23.7,07.0,0000.0,0003.40,0001.16,0000.99
2022-11-21 14:18:00,,0829.8,5.02,0.00,22.0,21.2,00.0,30.9,23.9,06.9,0000.0,0003.37,0001.14,0000.96
2022-11-21 14:19:00,,0829.8,5.00,0.00,22.1,22.2,00.0,30.9,24.1,06.8,0000.0,0003.40,0001.14,0000.95
2022-11-21 14:20:00,,0829.8,4.99,0.00,22.2,22.4,00.0,30.9,24.2,06.8,0000.0,0003.53,0001.15,0000.94
2022-11-21 14:21:00,,0829.8,4.98,0.00,22.2,22.0,00.0,31.0,24.2,06.8,0000.0,0004.67,0001.15,0000.93
2022-11-21 14:22:00,,0829.8,5.01,0.00,22.2,21.7,00.0,31.0,24.1,06.8,0000.0,0004.75,0001.19,0000.95
2022-11-21 14:23:00,,0829.8,5.00,0.00,22.2,21.4,00.0,31.1,24.1,06.7,0000.0,0004.79,0001.21,0000.94
2022-11-21 14:24:00,,0829.9,4.99,0.00,22.2,21.3,00.0,31.1,24.0,06.7,0000.0,0004.63,0001.17,0000.93
2022-11-21 14:25:00,,0829.9,5.02,0.00,22.2,21.1,00.0,31.1,24.0,06.8,0000.0,0004.98,0001.16,0000.93
2022-11-21 14:26:00,,0829.9,4.99,0.00,22.2,21.0,00.0,31.1,24.0,06.8,0000.0,0004.13,0001.16,0000.94
2022-11-21 14:27:00,,0829.8,5.02,0.00,22.2,20.9,00.0,31.1,23.9,06.8,0000.0,0004.12,0001.15,0000.94
2022-11-21 14:28:00,,0829.8,4.99,0.00,22.1,20.9,00.0,31.1,23.9,06.9,0000.0,0004.06,0001.14,0000.94
2022-11-21 14:29:00,,0829.8,5.01,0.00,22.1,20.8,00.0,31.1,23.9,06.9,0000.0,0004.12,0001.13,0000.93
2022-11-21 14:30:00,,0829.9,4.99,0.00,22.1,20.8,00.0,31.1,23.9,06.8,0000.0,0004.17,0001.12,0000.91
2022-11-21 14:31:00,,0829.8,5.00,0.00,22.1,20.7,00.0,31.1,23.9,06.9,0000.0,0004.21,0001.12,0000.89
2022-11-21 14:32:00,,0829.9,5.00,0.00,22.1,20.7,00.0,31.1,23.9,06.9,0000.0,0003.04,0001.10,0000.87
2022-11-21 14:33:00,,0830.0,4.99,0.00,22.1,20.7,00.0,31.1,23.8,06.9,0000.0,0002.86,0001.05,0000.84
2022-11-21 14:34:00,,0830.0,5.01,0.00,22.1,20.7,00.0,31.0,23.8,06.9,0000.0,0002.84,0001.03,0000.83
2022-11-21 14:35:00,,0829.9,4.98,0.00,22.0,20.7,00.0,31.0,23.8,06.8,0000.0,0002.89,0001.03,0000.82
2022-11-21 14:36:00,,0829.9,5.01,0.00,22.0,20.7,00.0,31.0,23.8,06.9,0000.0,0002.42,0001.06,0000.83
2022-11-21 14:37:00,,0830.0,4.98,0.00,22.0,20.7,00.0,31.0,23.8,06.9,0000.0,0001.85,0001.21,0000.98
2022-11-21 14:38:00,,0829.9,4.99,0.00,22.0,20.7,00.0,31.0,23.8,06.9,0000.0,0001.96,0001.34,0001.13
2022-11-21 14:39:00,,0830.0,5.01,0.00,22.0,20.6,00.0,31.0,23.8,06.9,0000.0,0002.16,0001.46,0001.25
2022-11-21 14:40:00,,0830.1,5.00,0.00,22.0,21.0,00.0,30.9,23.8,06.9,0000.0,0002.27,0001.59,0001.36
2022-11-21 14:41:00,,0830.1,5.00,0.00,22.1,22.2,00.0,30.9,24.1,06.9,0000.0,0002.29,0001.67,0001.46
2022-11-21 14:42:00,,0830.1,5.00,0.00,22.2,22.9,00.0,30.9,24.3,06.9,0000.0,0002.48,0001.82,0001.62
2022-11-21 14:43:00,,0830.1,4.98,0.00,22.3,22.5,00.0,31.0,24.3,06.9,0000.0,0002.62,0001.97,0001.78
2022-11-21 14:44:00,,0830.1,5.02,0.00,22.3,22.0,00.0,31.1,24.3,06.9,0000.0,0002.90,0002.17,0001.96
2022-11-21 14:45:00,,0830.1,4.98,0.00,22.3,21.7,00.0,31.1,24.2,07.0,0000.0,0003.20,0002.40,0002.17
2022-11-21 14:46:00,,0830.1,5.00,0.00,22.3,21.5,00.0,31.1,24.2,07.0,0000.0,0003.42,0002.64,0002.43
2022-11-21 14:47:00,,0830.1,5.01,0.00,22.3,21.4,00.0,31.1,24.2,06.9,0000.0,0003.69,0002.87,0002.65
2022-11-21 14:48:00,,0830.1,4.99,0.00,22.3,21.3,00.0,31.2,24.2,06.9,0000.0,0003.79,0002.94,0002.73
2022-11-21 14:49:00,,0830.1,5.01,0.00,22.3,21.2,00.0,31.2,24.1,06.9,0000.0,0004.02,0003.05,0002.82
2022-11-21 14:50:00,,0830.1,5.00,0.00,22.3,21.1,00.0,31.2,24.1,06.9,0000.0,0004.09,0003.14,0002.92
2022-11-21 14:51:00,,0830.0,5.00,0.00,22.3,21.1,00.0,31.2,24.1,06.9,0000.0,0004.21,0003.18,0003.01
2022-11-21 14:52:00,,0830.1,5.00,0.00,22.3,21.1,00.0,31.2,24.1,06.9,0000.0,0004.47,0003.22,0003.06
2022-11-21 14:53:00,,0830.1,5.00,0.00,22.3,21.0,00.0,31.2,24.1,06.8,0000.0,0004.44,0003.22,0003.07
2022-11-21 14:54:00,,0830.1,5.00,0.00,22.3,21.0,00.0,31.2,24.1,06.8,0000.0,0004.58,0003.25,0003.09
2022-11-21 14:55:00,,0830.1,4.98,0.00,22.3,21.0,00.0,31.2,24.1,06.8,0000.0,0004.55,0003.25,0003.10
2022-11-21 14:56:00,,0830.1,5.01,0.00,22.2,21.0,00.0,31.2,24.1,06.8,0000.0,0004.83,0003.23,0003.07
2022-11-21 14:57:00,,0830.1,4.99,0.00,22.2,20.9,00.0,31.2,24.0,06.9,0000.0,0006.05,0003.21,0003.04
2022-11-21 14:58:00,,0830.0,5.00,0.00,22.2,20.8,00.0,31.2,24.0,06.9,0000.0,0006.13,0003.20,0003.03
2022-11-21 14:59:00,,0830.0,5.01,0.00,22.2,20.8,00.0,31.1,24.0,06.9,0000.0,0006.20,0003.22,0003.04
